Location: Althorst
(53.6379°N, 10.7715°E)
Time: 12:06:37
(UTC+00:00)

Cosmos 304 Rocket - Pass Details

Date: 10 December 2019
Orbit: 679 x 688 km, 74.0° (Epoch: 27 January)

Event Time Altitude Azimuth Distance (km) Brightness Sun altitude
Rises 15:45:03 0° 332° (NNW) 3,059 7.1 -6.7°
Reaches altitude 10° 15:47:22 10° 330° (NNW) 2,140 6.3 -7.0°
Maximum altitude 15:52:10 69° 248° (WSW) 735 4.2 -7.6°
Drops below altitude 10° 15:56:56 10° 165° (SSE) 2,131 6.5 -8.2°
Sets 15:59:14 0° 163° (SSE) 3,044 7.3 -8.5°
